NOAA-15
1 25338U 98030A 21014.77536244 .00000028 00000-0 30308-4 0 9995
2 25338 98.6986 44.5451 0010544 13.9762 346.1707 14.26008587179347
GO-32
1 25397U 98043D 21014.56523472 -.00000010 00000-0 14992-4 0 9993
2 25397 98.7540 320.6908 0001789 132.5371 227.5959 14.23699211169593
ISS
1 25544U 98067A 21014.87156498 .00001899 00000-0 42163-4 0 9993
2 25544 51.6460 21.0493 0000363 230.6069 201.6701 15.49294771264830
NO-44
1 26931U 01043C 21014.58336483 -.00000037 00000-0 17646-4 0 9996
2 26931 67.0524 317.5391 0007442 272.1319 87.8930 14.30602597 7344
SO-50
1 27607U 02058C 21014.53798419 .00000005 00000-0 20994-4 0 9994
2 27607 64.5559 88.9837 0029355 90.1028 270.3439 14.75702180971869
CO-55
1 27844U 03031E 21014.69447729 .00000044 00000-0 39574-4 0 9998
2 27844 98.6815 25.2305 0010234 158.5963 201.5645 14.22282038910160
CO-57
1 27848U 03031J 21014.57174686 .00000023 00000-0 30397-4 0 9999
2 27848 98.6876 25.6778 0009906 171.3462 188.7888 14.21862799909946
RS-22
1 27939U 03042A 21014.84377313 .00000085 00000-0 23873-4 0 9993
2 27939 98.1167 153.2458 0013818 50.0548 310.1873 14.66932741925007
NOAA-18
1 28654U 05018A 21014.81351072 .00000108 00000-0 82646-4 0 9993
2 28654 99.0166 78.9195 0014071 359.5468 0.5688 14.12572955806844
CO-58
1 28895U 05043F 21014.36011346 .00000112 00000-0 30429-4 0 9992
2 28895 98.0357 151.1933 0016180 340.0320 20.0248 14.63853317811464
Falconsat-3
1 30776U 07006E 21014.33587432 .00003183 00000-0 80876-4 0 9997
2 30776 35.4357 9.6085 0003460 282.4928 77.5412 15.39309360769331
CO-65
1 32785U 08021C 21014.20692791 .00000216 00000-0 28746-4 0 9990
2 32785 97.5942 359.2071 0013688 148.7213 211.4821 14.88610839689293
AAUSAT2
1 32788U 08021F 21014.52862652 .00000630 00000-0 62014-4 0 9999
2 32788 97.4972 15.7352 0013079 69.7410 290.5217 14.95343021690854
DO-64
1 32789U 08021G 21014.54181550 .00001234 00000-0 83186-4 0 9997
2 32789 97.3950 55.7403 0010723 316.8296 43.2091 15.08388255693626
CO-66
1 32791U 08021J 21014.84702711 .00000494 00000-0 54934-4 0 9997
2 32791 97.5571 5.8636 0014563 115.2692 245.0038 14.91246399689969
RS-30
1 32953U 08025A 21014.82679015 .00000028 00000-0 12906-3 0 9994
2 32953 82.5040 146.4793 0018654 313.1675 46.7842 12.43099527573892
PRISM
1 33493U 09002B 21014.58090078 .00000059 00000-0 10628-4 0 9993
2 33493 98.1696 329.9319 0016152 75.9821 284.3194 14.97376385651293
NOAA-19
1 33591U 09005A 21014.76257873 .00000030 00000-0 41559-4 0 9999
2 33591 99.1927 31.5829 0013644 200.0748 159.9888 14.12448542615226
TISAT-1
1 36799U 10035E 21014.50166475 .00000348 00000-0 40824-4 0 9992
2 36799 98.2019 199.0944 0012190 4.4523 355.6800 14.91569409570380
JUGNU
1 37839U 11058B 21014.54176697 .00000322 00000-0 29538-4 0 9996
2 37839 19.9620 82.6180 0018756 195.0278 193.1728 14.12700395478678
SRMSAT
1 37841U 11058D 21014.71059632 .00000289 00000-0 13553-4 0 9999
2 37841 19.9708 150.2936 0011978 44.8415 343.4049 14.10682992478128
AO-71
1 37854U 11061E 21014.54660540 .00001481 00000-0 80441-4 0 9999
2 37854 101.7129 221.0753 0156125 153.8395 207.0813 15.08055010503288
HRBE
1 37855U 11061F 21014.56231548 .00001985 00000-0 10334-3 0 9996
2 37855 101.7257 218.1518 0168631 168.1841 192.3406 15.07085120502992
HORYU-2
1 38340U 12025D 21014.12343462 .00000192 00000-0 35683-4 0 9992
2 38340 98.2541 78.4539 0012710 89.6191 270.6474 14.75959906455627
RS-40
1 38735U 12041C 21014.48496746 .00000022 00000-0 84803-4 0 9991
2 38735 82.4748 229.0714 0017829 61.8908 298.3981 12.42581472384062
BEESAT-3
1 39135U 13015F 21014.85659752 .00001236 00000-0 68489-4 0 9997
2 39135 64.8679 338.4101 0018309 208.7710 151.2408 15.18827083427703
BEESAT-2
1 39136U 13015G 21014.33001292 .00001148 00000-0 65115-4 0 9996
2 39136 64.8743 345.8815 0029498 263.6561 96.1206 15.18202628427115
ZACUBE-1
1 39417U 13066B 21014.85878830 .00000252 00000-0 37908-4 0 9995
2 39417 97.5790 7.2799 0057505 305.6513 53.9354 14.81408522386339
TRITON-1
1 39427U 13066M 21014.83734363 .00000206 00000-0 40345-4 0 9994
2 39427 97.7564 330.3713 0114680 121.6770 239.5680 14.68131500382879
GOMX-1
1 39430U 13066Q 21014.83280982 .00000133 00000-0 33460-4 0 9990
2 39430 97.8079 306.7722 0149320 238.5902 120.0644 14.59521088380636
LO-74
1 39440U 13066AA 21014.51686302 .00000287 00000-0 46601-4 0 9993
2 39440 97.6565 351.6502 0080427 16.0753 344.2981 14.76139906383714
AO-73
1 39444U 13066AE 21014.53067571 .00000304 00000-0 43464-4 0 9994
2 39444 97.5711 9.2951 0056479 297.7168 61.8323 14.82292399384639
SPROUT
1 39770U 14029E 21014.84955044 .00000598 00000-0 71016-4 0 9990
2 39770 97.9074 126.4207 0008875 0.8240 359.2972 14.88123528360499
DUCHIFAT-1
1 40021U 14033M 21014.81065143 .00000370 00000-0 43112-4 0 9999
2 40021 97.9602 313.5244 0011898 316.1844 43.8429 14.91144106357385
NANOSATCBR1
1 40024U 14033Q 21014.55060270 .00000465 00000-0 53757-4 0 9990
2 40024 97.9418 308.9146 0011363 322.7894 37.2534 14.90274414356677
DTUSAT-2
1 40030U 14033W 21014.52597704 .00000305 00000-0 38569-4 0 9998
2 40030 97.9116 301.8728 0011138 327.6201 32.4331 14.88867705356415
EO-80
1 40032U 14033Y 21014.55178438 .00000301 00000-0 38197-4 0 9995
2 40032 97.9122 301.9029 0011088 328.3412 31.7137 14.88820979356390
ANTELSAT
1 40034U 14033AA 21014.54417157 .00000234 00000-0 41626-4 0 9996
2 40034 97.6900 225.8461 0059403 37.4645 323.0683 14.74380251352989
VELOX-1
1 40057U 14034E 21014.66402272 .00000357 00000-0 57081-4 0 9995
2 40057 98.3044 163.8162 0010906 183.1054 177.0094 14.78041005352829
DAURIA DX 1
1 40071U 14037C 21014.79544820 .00000128 00000-0 23874-4 0 9993
2 40071 98.4573 210.9498 0008345 171.8897 188.2452 14.81441387352544
HODOYOSHI-1
1 40299U 14070B 21014.78905206 .00000815 00000-0 36002-4 0 9990
2 40299 97.3049 92.4278 0013243 163.3527 314.3462 15.24418194344003
CHUBUSAT-1
1 40300U 14070C 21014.76057292 .00000878 00000-0 40210-4 0 9999
2 40300 97.2651 83.3432 0019051 185.2854 290.9675 15.22885171343661
QSAT-EOS
1 40301U 14070D 21014.74982957 .00002521 00000-0 94500-4 0 9991
2 40301 97.2734 90.2230 0025106 155.6669 320.4939 15.27884926344182
FIREBIRD FU3
1 40377U 15003B 21014.56672088 .00001909 00000-0 74723-4 0 9996
2 40377 99.0839 123.9394 0120000 328.7838 30.6303 15.21239555329382
FIREBIRD FU4
1 40378U 15003C 21014.81086944 .00001816 00000-0 71205-4 0 9994
2 40378 99.0843 124.3510 0120101 327.8004 31.5931 15.21278764329438
GRIFEX
1 40379U 15003D 21014.78415138 .00001270 00000-0 55941-4 0 9995
2 40379 99.0850 114.8863 0130392 357.2044 2.8440 15.17252262328880
NO-84
1 40654U 15025D 21013.36363367 .00020087 00000-0 18948-3 0 1549
2 40654 54.9838 48.8481 0098681 17.7618 342.6957 15.61036929201723
DEORBITSAIL
1 40719U 15032E 21014.58481064 .00000391 00000-0 62202-4 0 9995
2 40719 97.8472 263.7322 0014989 244.3006 115.6658 14.77205803297260
NUDT-PHONESAT
1 40900U 15049B 21014.79401551 .00003021 00000-0 12271-3 0 9994
2 40900 97.4256 29.9951 0011309 328.0364 117.8565 15.25302909295390
XW-2A
1 40903U 15049E 21014.78382132 .00002925 00000-0 65515-4 0 9991
2 40903 97.2605 69.6482 0011713 208.0545 259.1304 15.44212674299076
